Regional Weather Roundup
Issued by NWS

Home | Current Version | Previous Version | Text Only | Print | Product List | Glossary Off
Versions: 1 2 3 4 5 6 7 8 9 10 11 12 13 14 15 16 17 18 19 20 21 22 23 24 25 26 27 28 29 30 31 32 33 34 35 36 37 38 39 40 41 42 43 44 45 46 47 48 49 50

000
ASUS43 KLMK 291002
RWRKY
KENTUCKY REGIONAL WEATHER ROUNDUP
NATIONAL WEATHER SERVICE LOUISVILLE KY
600 AM EDT MON MAY 29 2017

NOTE "FAIR" INDICATES FEW OR NO CLOUDS BELOW 12,000 FEET
WITH NO SIGNIFICANT WEATHER AND/OR OBSTRUCTIONS TO VISIBILITY.

KYZ001>023-026-027-061>063-070>075-291100-
WESTERN AND SOUTH CENTRAL KENTUCKY

CITY           SKY/WX    TMP DP  RH WIND       PRES   REMARKS
PADUCAH        CLOUDY    63  61  93 SW5       29.94R
HENDERSON      CLOUDY    64  62  93 SW3       29.94R
OWENSBORO      CLOUDY    63  62  97 SW5       29.94R
HOPKINSVILLE   MOCLDY    64  64 100 SW5       29.96R
BOWLING GREEN  CLOUDY    64  64 100 SW5       29.96R
GLASGOW        NOT AVBL
$$

KYZ024-025-028>034-038-045-046-053-291100-
NORTH CENTRAL KENTUCKY

CITY           SKY/WX    TMP DP  RH WIND       PRES   REMARKS
LOUISVILLE/SDF PTCLDY    66  63  90 S5        29.92R
LOUISVILLE/LOU PTCLDY    64  64 100 S3        29.93R FOG
FORT KNOX      CLOUDY    62  62 100 W5        29.92R FOG
$$

KYZ035>037-039>044-047>052-055>060-089>105-291100-
NORTHEAST KENTUCKY

CITY           SKY/WX    TMP DP  RH WIND       PRES   REMARKS
LEXINGTON      CLOUDY    65  62  90 SW7       29.94R
COVINGTON      FOG       62  62 100 SW8       29.89R VSB<1/4
FRANKFORT      CLOUDY    64  61  90 SW5       29.92R FOG
$$

KYZ054-064>069-076>088-106>120-291100-
SOUTHEAST KENTUCKY

CITY           SKY/WX    TMP DP  RH WIND       PRES   REMARKS
JACKSON        MOCLDY    64  62  93 CALM      29.95R
LONDON         CLOUDY    65  61  87 SW7       29.97R
SOMERSET       NOT AVBL
MIDDLESBORO    CLOUDY    64  64  99 CALM      29.98R
MONTICELLO     CLOUDY    65  63  93 W12       29.99S
$$





USA.gov is the U.S. government's official web portal to all federal, state and local government web resources and services.